Pagina principale
METAR-TAF:

METAR-TAF

Aeroporti :

Jendouba, Tunisia

latitudine: 36-29N, longitudine: 008-48E, altezza: 143 m

Osservazione

Il bollettino è stato emesso 52 minuti fa, alle 16:00 UTC
Vento 11 kt da nord/nord-ovest, variando fra nord-ovest e nord
Temperature 20°C
Umidità 64%
Pressione 1011 hPa
Visibilità 10 km o più
Nubi sparse ad un'altezza di 2000 ft
Poco nuvoloso ad un'altezza di 2300 ft, Cumulonembo.
Nubi sparse ad un'altezza di 3000 ft
temporale,

METAR: DTTN 151600Z 34011KT 310V010 9999 TS SCT020 FEW023CB SCT030 20/13 Q1011 CB/NW

Ora: 17:52 (16:52 UTC)


TAF: mancante

Osservazioni e previsioni meteorologiche di più di 4000 aeroporti (messaggi METAR e TAF).

Le stazioni disponibili sono rappresentate dai dischi gialli e rossi sulla carta.

Puntare il mouse per vedere il nome della stazione.

Clicca sopra per visualizzare le osservazioni e previsioni meteorologiche.

Per cambiare la mappa : fare clic sui pulsanti verdi con una croce nera per ingrandire, il pulsante verde con un trattino per diminuire, o sulla freccia verde per le mappe adiacenti.


METAR-TAF: